Regional Weather Roundup
Issued by NWS Charleston, SC

Current Version | Previous Version | Graphics & Text | Print | Product List | Glossary On
Versions: 1 2 3 4 5 6 7 8 9 10 11 12 13 14 15 16 17 18 19 20 21 22 23 24 25 26 27 28 29 30 31 32 33 34 35 36 37 38 39 40 41 42 43 44 45 46 47 48 49 50
763
ASUS42 KCHS 290628
RWRCHS

REGIONAL WEATHER ROUNDUP
NATIONAL WEATHER SERVICE CHARLESTON SC
200 AM EDT THU SEP 29 2016

NOTE: "FAIR" INDICATES FEW OR NO CLOUDS BELOW 12,000 FEET WITH NO
SIGNIFICANT WEATHER AND/OR OBSTRUCTIONS TO VISIBILITY.

NOT ALL STATIONS ARE QUALITY CONTROLLED. USE DATA WITH CAUTION...
ESPECIALLY DEWPOINT OBSERVATIONS.

SCZ027-030-031-034>040-042>050-290700-
...SOUTHEAST SOUTH CAROLINA...

CITY           SKY/WX    TMP DP  RH WIND       PRES   REMARKS
N CHARLESTON   PTCLDY    78  73  84 S7        29.94F
6HR MIN TEMP:  78; 6HR MAX TEMP:  80;

WATERFRONT PRK   N/A     80  76  87 S8        29.93F
MOUNT PLEASANT FAIR      81  75  83 S7        29.94F
JOHNS ISLAND   MOCLDY    81  77  89 S9        29.94F
PINOPOLIS        N/A     77  75  94 VRB3      29.87F
MONCKS CORNER  MOCLDY    75  73  94 S3        29.93F
SUMMERVILLE    NOT AVBL
BEAUFORT MCAS  CLEAR     78  73  84 S6        29.94F
6HR MIN TEMP:  78; 6HR MAX TEMP:  82;

BEAUFORT ARPT  FAIR      79  72  78 SW6       29.94S
HILTON HEAD IS CLEAR     79  73  83 SW8       29.95F
WALTERBORO     CLOUDY    79  79 100 S7        29.94S
ALLENDALE      CLOUDY    77  73  88 S5        29.91F

...SOUTHERN MIDLANDS AND PEE DEE...

CITY           SKY/WX    TMP DP  RH WIND       PRES   REMARKS
GEORGETOWN     FAIR      75  73  94 S3        29.95F
KINGSTREE      MOCLDY    73  72  94 SE7       29.93S
ORANGEBURG     PTCLDY    74  72  93 S5        29.92F
6HR MIN TEMP:  74; 6HR MAX TEMP:  80;

BARNWELL       NOT AVBL
AIKEN          FAIR      70  68  94 S6        29.95F
MANNING        FAIR      75  72  88 S6        29.93S
COLUMBIA       PTCLDY    76  71  85 S3        29.91S
6HR MIN TEMP:  74; 6HR MAX TEMP:  81; 6HR PCP: TRACE;

SUMTER         MOCLDY    77  72  83 S5        29.90S
                                      6HR PCP: TRACE;

FLORENCE       MOCLDY    76  73  91 S8        29.93F
6HR MIN TEMP:  76; 6HR MAX TEMP:  79;

MYRTLE BEACH   PTCLDY    81  68  65 S10       29.97F
N MYRTLE BEACH PTCLDY    80  74  81 S12       29.95F
6HR MIN TEMP:  80; 6HR MAX TEMP:  80;


$$

GAZ063-065-086>088-099>101-113>116-118-119-134>141-150-290700-
...SOUTHEAST GEORGIA...

CITY           SKY/WX    TMP DP  RH WIND       PRES   REMARKS
SAVANNAH ARPT  CLEAR     76  70  82 SW7       29.95F
6HR MIN TEMP:  76; 6HR MAX TEMP:  81;

HUNTER AAF     CLEAR     76  76 100 S6        29.93F
6HR MIN TEMP:  76; 6HR MAX TEMP:  81;

FORT STEWART   CLEAR     74  70  87 CALM      29.92F
6HR MIN TEMP:  74; 6HR MAX TEMP:  81;

STATESBORO     CLEAR     76  73  92 SW3       29.93F
SYLVANIA       NOT AVBL
CLAXTON        FAIR      76  75  98 S3        29.94F

...CSRA...CENTRAL AND FAR SOUTHEAST GEORGIA...

CITY           SKY/WX    TMP DP  RH WIND       PRES   REMARKS
THOMSON        PTCLDY    71  68  93 CALM      29.96S
AUGUSTA-BUSH   CLEAR     75  69  81 SW10      29.90F
6HR MIN TEMP:  75; 6HR MAX TEMP:  81;

AUGUSTA-DANIEL PTCLDY    76  67  73 SW6       29.92S
SWAINSBORO     FAIR      73  72  94 S3        29.95S
VIDALIA        PTCLDY    73  73 100 S5        29.95S
EASTMAN        FAIR      75  75  98 CALM      29.97S
HAZLEHURST     FAIR      77  75  95 N5        29.94S
ALMA           CLEAR     74  72  93 SW3       29.95F
6HR MIN TEMP:  74; 6HR MAX TEMP:  81;

WAYCROSS       CLEAR     77  76  99 SW7       29.96F
JESUP          FAIR      73  73 100 SW5       29.96S
BAXLEY         FAIR      73  73 100 CALM      29.95F
BRUNSWICK      PTCLDY    77  73  88 SW6       29.97F
SAINT SIMONS   PTCLDY    76  72  87 SW10      29.97S
6HR MIN TEMP:  76; 6HR MAX TEMP:  82;


$$

SCZ027-028-034-036>038-045-046-048>050-GAZ119-141-290700-
...LAKE AND SUPPLEMENTAL COASTAL OBSERVATIONS...

STATION/POSITION TIME  TEMP    WIND        PRES    WAVE   SWELL
                       AIR SEA DIR/SP/G            HT/PER HT/PER/DIR
                 (UTC) (F)     (DEG/KT/KT) (MB)    (FT/S) (FT/S/D)
WINYAH BAY       0545   79     190/  4     1014.0S
LAKE MURRAY      0550   77     180/  9/ 13 1012.2F
ACE BASIN NERRS  0545   79        CALM     1014.0S
FORT PULASKI     0600   77 81  210/  5/  8 1014.5
SAPELO ISLAND    0600   77     220/  8     1014.0

$$

ANZ835-935-AMZ111-154-330-350-352-354-370-450-454-472-290700-
...C-MAN AND BUOY OBSERVATIONS...

STATION/POSITION TIME  TEMP    WIND        PRES    WAVE   SWELL
                       AIR SEA DIR/SP/G            HT/PER HT/PER/DIR
                 (UTC) (F)     (DEG/KT/KT) (MB)    (FT/S) (FT/S/D)
BUOY 41004       0550   79 82  190/ 16/ 21 1013.9F   3/ 4   2/100/ 7
BUOY 41008       0550   80 82  220/ 16/ 17 1014.2F   3/ 4   2/ 70/11
FOLLY BEACH CMAN 0600   81     200/ 14/ 17 1014.2F
CAPERS NEARSHORE 0508   81 81  210/ 16/ 21 1014.3F
FRIPP NEARSHORE  0508   80 81  220/ 16/ 19 1014.2F


STATION/POSITION TIME  TEMP    WIND        PRES    WAVE   SWELL
                       AIR SEA DIR/SP/G            HT/PER HT/PER/DIR
                 (UTC) (F)     (DEG/KT/KT) (MB)    (FT/S) (FT/S/D)
5E ST. MARYS GA  0601      82                N/A     2/12   2/ 90/12
FRYING PAN BUOY  0600   82 82  180/ 10/ 14 1014.8
BUOY 41025       0550   81 83  150/ 12/ 14 1015.8F   4/ 8   3/100/ 8
CAPE LOOKOUT NC  0600   80     150/  6/  6 1015.4S
BUOY 41002       0550   81 83  190/ 14/ 16 1016.5F   4/ 6   2/ 50/12
BUOY 41010       NOT AVBL
ST AUGUSTINE FL  0600   72 83  230/  5/  8 1016.4F


$$




USA.gov is the U.S. government's official web portal to all federal, state and local government web resources and services.